Погода в Геракини

Греция     40°16′49″N   23°25′32″E
темп.,
°C
ветер,
м/с
пор.,
м/с
влажн.,
%
обл.,
%
осадки,
мм/ч
давл.,
гПа
погр.,
м
17 мая, вт
вт1700:00+20всв33730 0.0 101824
03:00+20св33690 0.0 101728
06:00+19св22700 0.0 101718
09:00+20в11700 0.0 101864
12:00+20ююв22700 0.0 1018191
15:00+19ююв338022 0.0 1017206
18:00+18в118238 0.0 1015121
21:00+20всв11730 0.0 101444
18 мая, ср
ср1800:00+20в22720 0.0 101315
03:00+20св22738 0.0 101213
06:00+19сз33691 0.1 101228
09:00+21зсз33727 0.7 1013132
12:00+22юв12676 0.3 1014279
15:00+21вюв337132 3.1 1014421
18:00+21всв897489 2.3 1015553
21:00+14всв121686100 4.2 1021911
19 мая, чт
чт1900:00+13всв81576100 4.9 10261026
03:00+15св51154100 6.1 10271240
06:00+14с455912 0.0 1028462
09:00+15с23530 0.0 1029456
12:00+16ююв335245 0.0 1030840
15:00+17юз214910 0.0 1029692
18:00+17юз21521 0.0 1027379
21:00+17ссз33551 0.0 1027142
20 мая, пт
пт2000:00+17ссв22530 0.0 1027107
03:00+16всв45660 0.0 1027343
06:00+15с34660 0.0 1026131
09:00+17юз01570 0.0 1027274
12:00+19вюв45470 0.0 1026753
15:00+20вюв35490 0.0 1024453
18:00+21в23530 0.0 1023243
21:00+19сз22590 0.0 102328
21 мая, сб
сб2100:00+18с21560 0.0 102274
03:00+17св22570 0.0 102198
06:00+17ссв21565 0.0 102083
09:00+18вюв11540 0.0 1019185
12:00+18ююз32610 0.0 1018263
15:00+19юз33600 0.0 1017267
18:00+20ююз22560 0.0 1015209
21:00+19вюв00630 0.0 101463